Tracking 31027 objects as of 19-Jul-2025
HD Live streaming from Space Station
objects crossing your sky now

STARLINK-32075

Track STARLINK-32075 now!
10-day predictions
STARLINK-32075 is classified as:


NORAD ID: 60345
Int'l Code: 2024-136S
Perigee: 481.6 km
Apogee: 483.1 km
Inclination: 53.2 °
Period: 94.1 minutes
Semi major axis: 6853 km
RCS: Unknown
Launch date: August 2, 2024
Source: United States (US)
Launch site: AIR FORCE EASTERN TEST RANGE (AFETR)
Your satellite tracking list
LANDSAT 5
Track 1 satellite(s)




NASA's NSSDC Master Catalog

Two Line Element Set (TLE):
1 60345U 24136S   25199.38448322  .00000658  00000-0  34352-4 0  9994
2 60345  53.1599  83.8297 0001088 113.4173 246.6942 15.30192927 53792
Source of the keplerian elements: AFSPC